SCP
0 0 0 0 0 0 0 0 0 0 0 0 0 0 0 0 0 0 0 0 0 0 0 0 0 0 0 0 0 0 0 0 0 0 0 0 0 0 0 0 0 0 0 0
0 0 0 0 0 0 0 0 -0 0 0 0 0 0 0 0 0 0 0 0 0 0 0 0 0 0 0 0 0 0 0 0 0 0 0 0 0 0 0 0 0 0 0 0
-0 -0 0 0 0 0 -0 0 0 0 0 0 0 0 0 0 0 0 0 0 0 0 0 0 0 0 0 0 0 0 0 0 0 0 0 0 0 0 0 0 0 0 0 0
-0 -0 0 0 -0 0 -0 0 0 0 0 0 0 0 0 0 0 0 0 0 0 0 0 0 0 0 0 0 0 0 0 0 0 0 0 0 0 0 0 0 0 0 0 0
-0 0 0 0 -0 0 0 0 0 0 0 0 0 0 0 0 0 0 1 1 0 0 0 0 0 0 0 0 0 0 0 0 0 0 0 0 0 0 0 0 0 0 0 0
-0 0 0 0 0 0 0 0 0 0 0 0 0 0 0 0 0 0 1 1 0 0 0 0 0 0 0 0 0 0 0 0 0 0 0 0 0 0 0 0 0 0 0 0
0 0 0 0 0 0 0 0 0 0 0 0 0 0 0 0 0 0 0 0 0 0 0 0 0 0 0 0 0 0 0 0 0 0 0 0 0 0 0 0 0 0 0 0
0 0 0 0 0 0 0 0 0 0 0 0 0 0 0 0 0 0 0 0 0 0 0 0 0 0 0 0 0 0 0 0 0 0 0 0 0 0 0 0 0 0 0 0
0 0 0 0 0 0 0 0 0 0 0 0 0 0 0 0 0 0 0 0 0 0 0 0 -0 -0 0 0 0 0 0 0 0 0 0 0 0 0 0 0 0 0 0 0
0 0 0 0 0 0 0 0 0 0 0 -0 0 0 0 0 0 0 0 0 0 0 0 -0 -0 -0 0 0 -0 0 0 0 0 0 0 0 0 0 0 0 0 0 0 0
0 0 0 0 0 0 0 0 0 0 0 0 0 0 0 -0 0 0 0 0 0 0 0 -0 -0 -0 -0 0 0 0 0 0 0 0 0 0 0 0 0 0 0 0 0 0
0 0 0 0 0 0 0 0 0 0 0 0 0 0 0 -0 -0 0 0 0 0 0 0 -0 -0 0 -0 -0 -0 0 0 0 0 0 0 0 0 0 0 0 0 0 0 0
0 0 0 0 0 0 0 0 0 0 0 0 0 0 0 0 0 0 0 0 0 0 0 -0 0 0 0 -0 0 0 0 0 0 0 0 0 0 0 0 0 0 0 0 0
0 0 0 0 0 0 0 0 0 0 0 0 0 -0 0 0 0 0 0 0 0 0 0 0 0 0 0 0 0 0 0 0 0 0 0 0 0 0 0 0 0 0 0 0
0 0 0 0 0 0 0 0 -0 0 0 0 0 0 0 0 -0 0 0 0 0 0 0 0 0 0 0 0 0 0 0 0 0 0 0 0 0 0 0 0 0 0 0 0
0 0 0 0 0 0 0 0 0 0 0 0 0 0 0 -0 0 0 0 0 0 0 0 0 0 0 0 0 0 0 0 0 0 0 0 0 0 0 0 0 0 0 0 0
0 0 0 0 0 0 0 0 0 0 0 0 0 0 0 0 0 0 0 0 0 0 0 0 0 0 0 0 0 0 0 0 0 0 0 0 0 0 0 0 0 0 0 0
0 0 0 0 0 0 0 -0 0 0 -0 0 0 0 0 0 0 0 0 0 0 0 0 0 0 0 0 0 0 0 0 0 -0 0 0 0 0 0 0 0 0 0 0 0
0 0 0 0 0 0 0 0 0 0 0 0 0 0 0 0 0 0 0 0 0 0 0 0 0 0 0 0 -0 -0 -0 0 0 0 0 0 0 0 0 0 0 0 0 0
0 0 0 0 0 0 0 -0 0 -0 0 -0 0 0 0 -0 0 0 0 0 0 0 0 0 0 0 -0 0 0 -0 0 0 0 0 0 0 0 0 0 0 0 0 0 0
0 0 0 0 0 0 0 -0 -0 0 0 0 0 0 0 0 0 0 0 0 0 0 0 0 0 0 0 0 0 0 0 0 0 0 0 0 0 0 0 0 0 0 0 0
0 0 0 0 0 0 0 -0 0 -0 0 0 0 0 0 0 0 0 0 0 0 0 0 0 0 0 0 0 0 0 0 0 0 0 0 0 0 0 0 0 0 0 0 0
0 0 0 0 0 0 0 0 0 -0 0 0 0 0 0 0 0 0 0 0 0 0 0 0 0 0 0 0 0 0 0 0 0 0 0 0 0 0 0 0 0 0 0 0
0 0 0 0 0 0 0 0 0 0 0 0 0 0 0 0 0 0 0 0 0 0 0 0 0 0 0 0 0 0 0 0 0 0 0 0 0 0 0 0 0 0 0 0
0 0 0 0 0 0 0 0 0 0 0 0 0 0 0 0 0 0 0 0 0 0 0 0 0 0 0 0 0 0 0 0 0 0 0 0 0 0 0 0 0 0 0 0
0 0 0 0 0 0 0 0 0 0 0 0 0 0 0 0 0 0 0 0 0 0 0 0 0 0 0 0 0 0 0 0 0 0 0 0 0 0 0 0 0 0 0 0
Wind_Speed_500mb
2 8 13 17 10 5 6 12 16 15 6 7 9 9 14 11 14 16 17 14 13 10 12 12 14 7 2 3 4 13 18 11 11 13 8 16 22 22 21 26 33 33 32 37
3 14 18 7 12 9 13 16 21 12 6 9 9 19 14 16 12 13 14 10 8 9 7 2 6 4 9 11 10 12 20 8 15 17 10 18 24 24 28 34 27 23 24 27
11 15 4 12 17 20 22 19 23 20 2 6 7 12 12 11 14 16 16 12 14 12 8 6 4 11 14 12 11 19 15 5 12 21 6 12 19 22 25 18 15 20 26 32
13 8 16 16 20 22 26 33 25 20 16 21 3 18 9 14 19 16 16 12 20 17 11 9 7 11 14 14 12 12 12 15 14 14 7 11 14 6 9 12 19 26 32 33
27 15 12 17 33 13 30 17 17 15 15 7 12 11 6 3 20 24 19 11 18 20 16 14 11 8 10 15 14 11 10 11 14 6 2 2 4 4 13 18 24 26 33 38
34 9 10 30 26 19 16 16 11 3 5 13 14 11 15 11 22 19 13 11 19 22 20 14 13 8 9 12 10 9 7 8 6 4 5 8 9 15 19 22 26 33 38 43
7 11 9 11 16 5 5 5 12 16 13 21 3 9 19 13 12 15 21 20 19 20 19 14 11 7 7 11 10 8 3 4 11 12 9 12 15 19 24 29 32 39 41 38
8 11 4 6 6 4 4 5 11 28 23 29 4 10 6 5 3 3 18 20 20 19 18 16 11 11 12 11 8 13 13 12 9 7 9 13 18 22 25 30 39 30 34 39
5 10 2 6 1 5 7 7 4 5 2 8 7 7 17 5 8 7 20 23 22 18 25 21 14 14 14 15 17 15 12 9 6 4 9 17 20 20 27 35 24 31 37 42
2 11 2 2 3 12 3 11 7 6 13 20 6 8 17 7 16 18 22 26 25 24 30 23 20 18 19 20 18 12 8 4 6 12 18 22 24 27 29 20 26 34 39 43
7 8 11 4 12 16 6 5 3 3 5 11 16 8 4 19 15 22 27 30 32 35 34 26 23 21 18 19 20 19 15 13 17 20 22 23 29 29 17 21 28 35 40 43
5 5 12 23 4 6 3 9 10 11 9 6 7 12 2 16 14 21 29 32 30 32 32 28 27 22 22 24 24 23 23 23 22 23 24 25 31 22 20 24 30 34 41 39
1 3 11 14 7 5 4 3 5 2 3 19 15 14 4 3 2 15 28 32 33 33 32 33 32 29 28 29 28 28 29 28 27 26 28 30 30 22 23 27 29 32 39 36
5 4 16 24 29 7 18 12 10 12 12 23 23 35 14 12 14 13 22 31 36 37 36 34 33 33 33 32 32 35 34 33 31 31 32 34 33 28 28 29 30 33 38 35
1 8 6 21 20 17 21 24 18 20 25 17 28 22 27 18 15 31 29 27 32 34 37 38 35 29 33 33 33 36 35 35 32 36 37 37 34 32 34 31 34 35 38 37
4 3 7 18 8 8 14 12 13 13 21 18 23 22 20 28 11 17 30 30 28 34 33 29 29 31 31 33 33 29 24 24 29 35 36 35 34 34 35 36 39 39 38 40
1 5 5 6 15 17 4 18 14 20 22 15 12 17 23 20 17 16 13 5 21 26 27 30 30 26 30 25 28 22 21 25 30 34 32 34 35 37 36 38 42 42 41 43
1 1 2 8 17 3 7 8 12 20 26 22 22 25 30 25 12 12 14 3 11 19 17 12 10 12 11 18 19 19 20 23 25 30 33 35 37 38 36 39 40 43 42 44
3 4 1 5 6 7 5 10 8 1 11 13 19 19 38 7 31 8 20 13 18 17 13 8 3 3 5 7 9 17 22 28 32 38 41 46 51 53 52 50 46 45 48 47
6 5 2 2 1 5 8 13 2 4 10 9 15 10 19 29 4 12 25 23 20 14 7 1 7 7 4 12 22 30 37 42 46 45 48 47 45 57 60 55 58 57 54 52
1 1 1 2 3 4 4 11 3 2 1 12 16 10 15 17 13 16 12 9 6 9 11 14 18 18 21 30 36 35 39 43 49 52 55 38 54 49 58 54 55 50 57 55
4 4 4 3 4 3 4 7 0 6 8 5 6 10 13 13 14 17 18 21 24 24 24 22 18 19 25 32 30 30 30 37 38 42 42 45 47 38 56 59 56 44 61 55
5 5 1 8 2 6 12 12 8 1 1 6 7 8 12 13 16 17 17 16 16 15 13 10 5 15 18 18 20 21 27 31 35 33 34 36 37 42 45 45 45 46 53 54
7 7 5 5 3 5 5 5 9 13 16 14 15 16 16 16 17 18 18 20 19 20 15 10 8 13 18 24 29 29 30 31 33 34 36 36 34 34 35 33 31 34 35 40
3 18 8 5 5 14 11 13 18 26 28 24 20 19 20 18 21 20 23 25 24 20 20 20 22 24 27 30 33 36 40 42 44 44 45 46 46 46 41 34 35 33 27 28
17 10 9 6 20 7 8 11 16 19 21 19 17 20 20 16 19 17 22 23 22 22 23 25 28 29 33 36 41 45 48 51 53 52 47 46 46 46 42 45 44 37 39 41
Wind_Direction_500mb
120 225 233 247 224 312 267 268 272 278 274 257 260 210 206 218 250 240 228 236 230 230 228 266 280 281 351 231 226 170 152 122 77 26 293 259 267 272 265 276 289 296 294 302
164 237 244 225 224 247 265 289 271 285 210 235 231 256 195 207 233 221 208 211 212 206 219 351 47 89 126 124 135 163 165 87 27 3 325 268 271 270 279 289 293 296 305 307
231 253 60 224 241 257 267 253 278 290 203 246 257 262 207 206 221 212 230 224 206 197 180 137 84 108 134 140 138 167 191 229 351 347 321 254 264 282 282 298 296 301 319 324
260 294 236 237 259 254 273 277 268 275 293 290 285 294 261 218 204 210 208 214 187 183 172 151 137 136 153 165 156 182 223 256 290 315 300 270 264 259 289 299 312 323 323 325
254 244 203 230 243 240 267 299 279 286 273 271 232 253 275 279 238 212 179 157 149 157 165 166 174 162 157 171 180 186 213 254 289 282 272 195 153 331 320 317 320 321 325 325
264 270 248 255 276 242 267 269 270 134 235 258 285 255 287 234 238 208 156 143 146 148 163 172 189 186 165 174 176 194 216 252 278 324 102 84 11 340 331 328 324 322 318 316
288 252 280 255 272 160 171 240 284 279 258 283 33 242 277 307 284 246 167 160 157 156 167 173 193 194 160 160 166 174 173 83 85 86 43 19 360 340 331 322 318 315 316 325
279 291 210 164 256 328 174 233 287 293 291 296 134 250 292 5 15 14 163 160 164 159 162 150 160 167 150 149 151 126 101 103 90 63 23 351 332 319 313 315 315 321 327 332
235 256 308 31 161 291 150 247 48 280 227 268 281 274 265 254 206 174 171 168 167 167 154 147 166 167 149 139 141 127 109 95 68 354 317 314 306 309 311 314 325 330 330 331
250 274 218 134 180 62 285 127 247 252 277 285 244 273 280 274 228 203 181 184 176 169 163 164 179 165 155 153 153 139 152 170 263 286 293 295 300 309 313 318 328 331 329 325
205 236 259 261 217 256 172 217 141 285 256 279 294 264 226 295 298 214 193 185 180 175 178 180 185 174 176 195 207 217 232 256 265 281 285 288 302 307 298 317 327 331 331 325
41 271 251 263 48 16 292 276 227 247 227 228 291 268 272 289 292 206 186 184 182 183 186 190 192 186 199 214 226 239 253 261 273 275 277 290 307 295 296 312 320 324 329 327
87 238 289 267 230 114 283 253 223 98 164 241 264 265 40 360 88 205 182 180 184 194 199 200 203 210 219 228 239 249 261 268 271 273 279 293 303 287 302 308 316 317 327 329
197 230 260 281 295 281 275 253 219 220 266 280 257 284 278 262 232 201 195 195 195 200 207 212 216 223 232 239 250 262 270 275 275 275 282 294 304 286 299 302 312 315 324 329
359 270 271 286 289 270 267 275 290 249 271 266 292 274 308 306 301 219 201 207 206 208 215 220 226 233 243 253 263 273 277 275 271 279 285 296 305 290 292 297 304 311 321 323
23 292 315 297 331 336 282 315 302 319 352 264 288 292 353 328 328 195 194 190 207 221 228 234 238 247 260 267 274 277 281 281 281 284 292 295 298 303 290 299 301 303 311 318
335 312 324 283 324 304 175 356 20 60 27 339 25 10 351 25 20 87 91 189 235 244 245 245 253 268 279 286 278 276 292 282 281 286 293 295 299 300 304 297 299 304 303 310
131 122 245 302 321 70 360 340 76 73 37 26 45 37 31 23 304 105 103 107 289 276 277 270 268 265 287 289 289 279 272 274 278 287 296 297 298 301 306 301 300 300 304 302
62 146 145 334 344 308 85 26 357 342 65 79 114 80 59 287 263 47 46 56 64 70 83 112 141 216 299 290 265 264 264 274 280 289 296 304 306 302 299 298 303 304 301 301
97 69 283 180 360 26 15 347 77 186 75 229 171 164 202 240 89 38 44 51 42 37 45 306 238 241 277 270 261 266 278 286 291 297 304 311 301 301 299 297 300 301 300 299
145 60 291 195 255 221 300 336 245 77 228 299 286 320 37 56 58 49 57 52 15 319 289 267 249 260 280 296 300 299 299 299 295 301 303 296 292 300 306 297 293 301 302 297
239 226 204 164 226 197 5 280 359 7 326 334 50 57 56 50 31 7 356 347 336 324 318 315 311 295 297 295 296 295 295 299 301 303 302 295 302 302 294 281 292 288 293 297
229 238 275 223 327 330 297 262 302 291 40 50 60 58 74 51 34 24 23 13 9 12 16 360 315 273 294 321 330 330 332 324 317 315 313 313 312 293 286 290 298 287 279 293
210 180 233 240 166 284 51 106 142 126 117 101 94 93 88 71 66 63 58 55 47 44 41 35 25 7 2 356 349 352 347 341 336 330 324 321 321 321 323 327 326 316 295 292
134 162 192 238 196 137 109 112 119 118 112 104 92 83 83 91 82 70 58 49 48 42 34 22 15 11 8 1 357 352 348 342 339 336 330 326 326 323 322 317 311 319 322 315
188 175 192 214 173 190 125 136 146 134 114 108 105 98 88 76 70 49 46 41 32 26 22 15 10 2 356 349 345 340 339 337 334 332 332 331 332 325 326 318 314 313 305 297
Wind_Speed_850mb
2 8 13 17 10 5 6 12 16 15 6 7 9 9 14 11 14 16 17 14 13 10 12 12 14 7 2 3 4 13 18 11 11 13 8 16 22 22 21 26 33 33 32 37
3 14 18 7 12 9 13 16 21 12 6 9 9 19 14 16 12 13 14 10 8 9 7 2 6 4 9 11 10 12 20 8 15 17 10 18 24 24 28 34 27 23 24 27
11 15 4 12 17 20 22 19 23 20 2 6 7 12 12 11 14 16 16 12 14 12 8 6 4 11 14 12 11 19 15 5 12 21 6 12 19 22 25 18 15 20 26 32
13 8 16 16 20 22 26 33 25 20 16 21 3 18 9 14 19 16 16 12 20 17 11 9 7 11 14 14 12 12 12 15 14 14 7 11 14 6 9 12 19 26 32 33
27 15 12 17 33 13 30 17 17 15 15 7 12 11 6 3 20 24 19 11 18 20 16 14 11 8 10 15 14 11 10 11 14 6 2 2 4 4 13 18 24 26 33 38
34 9 10 30 26 19 16 16 11 3 5 13 14 11 15 11 22 19 13 11 19 22 20 14 13 8 9 12 10 9 7 8 6 4 5 8 9 15 19 22 26 33 38 43
7 11 9 11 16 5 5 5 12 16 13 21 3 9 19 13 12 15 21 20 19 20 19 14 11 7 7 11 10 8 3 4 11 12 9 12 15 19 24 29 32 39 41 38
8 11 4 6 6 4 4 5 11 28 23 29 4 10 6 5 3 3 18 20 20 19 18 16 11 11 12 11 8 13 13 12 9 7 9 13 18 22 25 30 39 30 34 39
5 10 2 6 1 5 7 7 4 5 2 8 7 7 17 5 8 7 20 23 22 18 25 21 14 14 14 15 17 15 12 9 6 4 9 17 20 20 27 35 24 31 37 42
2 11 2 2 3 12 3 11 7 6 13 20 6 8 17 7 16 18 22 26 25 24 30 23 20 18 19 20 18 12 8 4 6 12 18 22 24 27 29 20 26 34 39 43
7 8 11 4 12 16 6 5 3 3 5 11 16 8 4 19 15 22 27 30 32 35 34 26 23 21 18 19 20 19 15 13 17 20 22 23 29 29 17 21 28 35 40 43
5 5 12 23 4 6 3 9 10 11 9 6 7 12 2 16 14 21 29 32 30 32 32 28 27 22 22 24 24 23 23 23 22 23 24 25 31 22 20 24 30 34 41 39
1 3 11 14 7 5 4 3 5 2 3 19 15 14 4 3 2 15 28 32 33 33 32 33 32 29 28 29 28 28 29 28 27 26 28 30 30 22 23 27 29 32 39 36
5 4 16 24 29 7 18 12 10 12 12 23 23 35 14 12 14 13 22 31 36 37 36 34 33 33 33 32 32 35 34 33 31 31 32 34 33 28 28 29 30 33 38 35
1 8 6 21 20 17 21 24 18 20 25 17 28 22 27 18 15 31 29 27 32 34 37 38 35 29 33 33 33 36 35 35 32 36 37 37 34 32 34 31 34 35 38 37
4 3 7 18 8 8 14 12 13 13 21 18 23 22 20 28 11 17 30 30 28 34 33 29 29 31 31 33 33 29 24 24 29 35 36 35 34 34 35 36 39 39 38 40
1 5 5 6 15 17 4 18 14 20 22 15 12 17 23 20 17 16 13 5 21 26 27 30 30 26 30 25 28 22 21 25 30 34 32 34 35 37 36 38 42 42 41 43
1 1 2 8 17 3 7 8 12 20 26 22 22 25 30 25 12 12 14 3 11 19 17 12 10 12 11 18 19 19 20 23 25 30 33 35 37 38 36 39 40 43 42 44
3 4 1 5 6 7 5 10 8 1 11 13 19 19 38 7 31 8 20 13 18 17 13 8 3 3 5 7 9 17 22 28 32 38 41 46 51 53 52 50 46 45 48 47
6 5 2 2 1 5 8 13 2 4 10 9 15 10 19 29 4 12 25 23 20 14 7 1 7 7 4 12 22 30 37 42 46 45 48 47 45 57 60 55 58 57 54 52
1 1 1 2 3 4 4 11 3 2 1 12 16 10 15 17 13 16 12 9 6 9 11 14 18 18 21 30 36 35 39 43 49 52 55 38 54 49 58 54 55 50 57 55
4 4 4 3 4 3 4 7 0 6 8 5 6 10 13 13 14 17 18 21 24 24 24 22 18 19 25 32 30 30 30 37 38 42 42 45 47 38 56 59 56 44 61 55
5 5 1 8 2 6 12 12 8 1 1 6 7 8 12 13 16 17 17 16 16 15 13 10 5 15 18 18 20 21 27 31 35 33 34 36 37 42 45 45 45 46 53 54
7 7 5 5 3 5 5 5 9 13 16 14 15 16 16 16 17 18 18 20 19 20 15 10 8 13 18 24 29 29 30 31 33 34 36 36 34 34 35 33 31 34 35 40
3 18 8 5 5 14 11 13 18 26 28 24 20 19 20 18 21 20 23 25 24 20 20 20 22 24 27 30 33 36 40 42 44 44 45 46 46 46 41 34 35 33 27 28
17 10 9 6 20 7 8 11 16 19 21 19 17 20 20 16 19 17 22 23 22 22 23 25 28 29 33 36 41 45 48 51 53 52 47 46 46 46 42 45 44 37 39 41
Wind_Direction_850mb
120 225 233 247 224 312 267 268 272 278 274 257 260 210 206 218 250 240 228 236 230 230 228 266 280 281 351 231 226 170 152 122 77 26 293 259 267 272 265 276 289 296 294 302
164 237 244 225 224 247 265 289 271 285 210 235 231 256 195 207 233 221 208 211 212 206 219 351 47 89 126 124 135 163 165 87 27 3 325 268 271 270 279 289 293 296 305 307
231 253 60 224 241 257 267 253 278 290 203 246 257 262 207 206 221 212 230 224 206 197 180 137 84 108 134 140 138 167 191 229 351 347 321 254 264 282 282 298 296 301 319 324
260 294 236 237 259 254 273 277 268 275 293 290 285 294 261 218 204 210 208 214 187 183 172 151 137 136 153 165 156 182 223 256 290 315 300 270 264 259 289 299 312 323 323 325
254 244 203 230 243 240 267 299 279 286 273 271 232 253 275 279 238 212 179 157 149 157 165 166 174 162 157 171 180 186 213 254 289 282 272 195 153 331 320 317 320 321 325 325
264 270 248 255 276 242 267 269 270 134 235 258 285 255 287 234 238 208 156 143 146 148 163 172 189 186 165 174 176 194 216 252 278 324 102 84 11 340 331 328 324 322 318 316
288 252 280 255 272 160 171 240 284 279 258 283 33 242 277 307 284 246 167 160 157 156 167 173 193 194 160 160 166 174 173 83 85 86 43 19 360 340 331 322 318 315 316 325
279 291 210 164 256 328 174 233 287 293 291 296 134 250 292 5 15 14 163 160 164 159 162 150 160 167 150 149 151 126 101 103 90 63 23 351 332 319 313 315 315 321 327 332
235 256 308 31 161 291 150 247 48 280 227 268 281 274 265 254 206 174 171 168 167 167 154 147 166 167 149 139 141 127 109 95 68 354 317 314 306 309 311 314 325 330 330 331
250 274 218 134 180 62 285 127 247 252 277 285 244 273 280 274 228 203 181 184 176 169 163 164 179 165 155 153 153 139 152 170 263 286 293 295 300 309 313 318 328 331 329 325
205 236 259 261 217 256 172 217 141 285 256 279 294 264 226 295 298 214 193 185 180 175 178 180 185 174 176 195 207 217 232 256 265 281 285 288 302 307 298 317 327 331 331 325
41 271 251 263 48 16 292 276 227 247 227 228 291 268 272 289 292 206 186 184 182 183 186 190 192 186 199 214 226 239 253 261 273 275 277 290 307 295 296 312 320 324 329 327
87 238 289 267 230 114 283 253 223 98 164 241 264 265 40 360 88 205 182 180 184 194 199 200 203 210 219 228 239 249 261 268 271 273 279 293 303 287 302 308 316 317 327 329
197 230 260 281 295 281 275 253 219 220 266 280 257 284 278 262 232 201 195 195 195 200 207 212 216 223 232 239 250 262 270 275 275 275 282 294 304 286 299 302 312 315 324 329
359 270 271 286 289 270 267 275 290 249 271 266 292 274 308 306 301 219 201 207 206 208 215 220 226 233 243 253 263 273 277 275 271 279 285 296 305 290 292 297 304 311 321 323
23 292 315 297 331 336 282 315 302 319 352 264 288 292 353 328 328 195 194 190 207 221 228 234 238 247 260 267 274 277 281 281 281 284 292 295 298 303 290 299 301 303 311 318
335 312 324 283 324 304 175 356 20 60 27 339 25 10 351 25 20 87 91 189 235 244 245 245 253 268 279 286 278 276 292 282 281 286 293 295 299 300 304 297 299 304 303 310
131 122 245 302 321 70 360 340 76 73 37 26 45 37 31 23 304 105 103 107 289 276 277 270 268 265 287 289 289 279 272 274 278 287 296 297 298 301 306 301 300 300 304 302
62 146 145 334 344 308 85 26 357 342 65 79 114 80 59 287 263 47 46 56 64 70 83 112 141 216 299 290 265 264 264 274 280 289 296 304 306 302 299 298 303 304 301 301
97 69 283 180 360 26 15 347 77 186 75 229 171 164 202 240 89 38 44 51 42 37 45 306 238 241 277 270 261 266 278 286 291 297 304 311 301 301 299 297 300 301 300 299
145 60 291 195 255 221 300 336 245 77 228 299 286 320 37 56 58 49 57 52 15 319 289 267 249 260 280 296 300 299 299 299 295 301 303 296 292 300 306 297 293 301 302 297
239 226 204 164 226 197 5 280 359 7 326 334 50 57 56 50 31 7 356 347 336 324 318 315 311 295 297 295 296 295 295 299 301 303 302 295 302 302 294 281 292 288 293 297
229 238 275 223 327 330 297 262 302 291 40 50 60 58 74 51 34 24 23 13 9 12 16 360 315 273 294 321 330 330 332 324 317 315 313 313 312 293 286 290 298 287 279 293
210 180 233 240 166 284 51 106 142 126 117 101 94 93 88 71 66 63 58 55 47 44 41 35 25 7 2 356 349 352 347 341 336 330 324 321 321 321 323 327 326 316 295 292
134 162 192 238 196 137 109 112 119 118 112 104 92 83 83 91 82 70 58 49 48 42 34 22 15 11 8 1 357 352 348 342 339 336 330 326 326 323 322 317 311 319 322 315
188 175 192 214 173 190 125 136 146 134 114 108 105 98 88 76 70 49 46 41 32 26 22 15 10 2 356 349 345 340 339 337 334 332 332 331 332 325 326 318 314 313 305 297